星链-31002 (STARLINK-31002 )

导读

STARLINK-31002是美国太空探索技术公司SpaceX星链星座的一员,由美国于2023年12月3日发射入轨,属于星链互联网卫星系列。该卫星承担着为全球提供低延迟、高速宽带互联网服务的任务,补充完善了星链星座的全球覆盖能力,推进了星链星座组网建设进程。

Basic Information
目录编号:
58495
目录名称:
STARLINK-31002
国际标识:
2023-186Y
轨道中心:
EARTH
卫星名称:
星链-31002
卫星全名:
星链-31002 (STARLINK-31002 )
卫星状态:
在轨 (已飞行1006 天)
发射日期:
2023-12-03 UTC
国别 :
美国 (US)
星等 :
--
Orbit Information
数据来源 国际轨道数据 AOE轨道数据
星历时间 2026-09-04T09:34:38+0800
10小时前
查看轨道信息
2026-08-30T20:00:00+0800
5天前
查看轨道信息
半长轴 6861.202km 6861.195km
偏心率 0.0001262 0.000102
轨道倾角 43.002° 43.001°
近地点辐角 251.913° 281.479°
升交点赤经 136.517° 162.306°
平近点角 108.159° 140.950°
近地点 482.199km 482.358km
远地点 483.931km 483.758km
周期 94.267分钟 94.267分钟
每日圈数 15.27575 15.275772
Detailed Information
固有亮度:
5
最大亮度:
0.3
卫星平台:
Starlink v2.0 mini
覆盖范围:
全球
运营商:
太空探索技术公司
运营商所在国:
美国
制造商(研发单位):
太空探索技术公司
制造商所在国:
美国
使用方式:
暂无
Satellite Introduction
星链(Starlink)计划是由太空探索技术公司(SpaceX)提出的一个巨型低轨卫星互联网星座项目,计划在2019年至2024年间在太空搭建由约1.2万颗卫星组成的“星链”网络,其中1584颗将部署在地球上空550千米处的近地轨道,并从2020年开始工作。该卫星仍在工作。
2D Orbit Map
3D Orbit Map
Orbit Altitude Analysis Chart
Orbit Inclination Analysis Chart
Orbit Comprehensive Analysis Chart
View Comprehensive Chart
Conjunction Data List
Event ID Objects TCA Miss Dist (km) Collision Risk Probability Collision Risk Index (CRI) Action
CDM_260906-094605-849506-211421
2026-09-06T
09:46:24+0000
0.035 km
近距离
1.457132E-3 极高风险 0.98
CDM_260903-225105-849506-383921
2026-09-03T
22:51:11+0000
0.253 km
中距离
2.473506E-4 高风险 0.83
CDM_260906-071205-849506-651021
2026-09-06T
07:12:03+0000
0.404 km
远距离
1.994399E-4 高风险 0.81
CDM_260906-172405-849506-651021
2026-09-06T
17:24:03+0000
0.613 km
远距离
7.048371E-5 中风险 0.72
CDM_260906-195805-849506-211421
2026-09-06T
19:58:24+0000
0.591 km
远距离
6.837619E-5 中风险 0.72
CDM_260827-204105-849506-762322
2026-08-27T
20:41:37+0000
0.947 km
远距离
1.816557E-5 中风险 0.6
CDM_260827-182205-849506-758723
2026-08-27T
18:22:25+0000
1.200 km
极远距离
1.366469E-5 中风险 0.58
CDM_260829-100905-849506-698421
2026-08-29T
10:09:40+0000
1.324 km
极远距离
3.89969E-6 低风险 0.47
CDM_260904-235505-849505-913622
2026-09-04T
23:55:00+0000
1.733 km
极远距离
3.732369E-6 低风险 0.46
CDM_260906-182405-849506-211421
2026-09-06T
18:24:15+0000
1.514 km
极远距离
3.154536E-6 低风险 0.45